Idaho Falls, ID

5:53 PM MDT on May 26, 2017 (GMT -0600)
Fanning

Weather History for KIDA - December, 2012

Change the Weather History Date:

Friday, December 28, 2012

  Actual Average Record
Temperature  
Mean Temperature 15 °F 19 °F  
Max Temperature 22 °F 28 °F 44 °F (2004)
Min Temperature 7 °F 11 °F -13 °F (1983)
Degree Days  
Heating Degree Days 50 46  
Month to date heating degree days 997 1234  
Since 1 July heating degree days 2571 3137  
Cooling Degree Days 0 0  
Month to date cooling degree days 0 0  
Year to date cooling degree days 444 264  
Moisture  
Dew Point 15 °F    
Average Humidity 85    
Maximum Humidity 92    
Minimum Humidity 77    
Precipitation  
Precipitation 0.00 in 0.02 in 0.41 in (1957)
Month to date precipitation 0.64 0.79  
Year to date precipitation 7.01 10.31  
Sea Level Pressure  
Sea Level Pressure 30.25 in    
Wind  
Wind Speed 6 mph (NW)    
Max Wind Speed 18 mph    
Max Gust Speed 23 mph    
Visibility 10 miles    
Events      
T = Trace of Precipitation, MM = Missing Value Source: NWS Daily Summary

Daily Weather History Graph

Daily Weather History Graph

Search for Another Location

Airport or City:

Trip Planner

Search our weather history database for the weather conditions in past years. The results will help you decide how hot, cold, wet, or windy it might be!

Date:

Astronomy

Dec. 28, 2012 Rise Set
Actual Time 8:00 AM MST 4:59 PM MST
Civil Twilight 7:28 AM MST 5:32 PM MST
Nautical Twilight 6:52 AM MST 6:08 PM MST
Astronomical Twilight 6:17 AM MST 6:43 PM MST
Moon 5:41 PM MST (12/28) 7:56 AM MST (12/28)
Length of Visible Light 10h 04m
Length of Day
8h 58m
Full, 100% of the Moon is Illuminated
Dec 28
Full
Jan 4
Last Quarter
Jan 11
New
Jan 18
First Quarter
Jan 26
Full

Hourly Weather History & Observations

Time (MST) Temp. Windchill Dew Point Humidity Pressure Visibility Wind Dir Wind Speed Gust Speed Precip Events Conditions
12:53 AM 21.0 °F 12.4 °F 18.0 °F 88% 30.18 in 10.0 mi West 6.9 mph - N/A   Overcast
1:53 AM 21.0 °F 14.6 °F 18.0 °F 88% 30.19 in 10.0 mi West 4.6 mph - N/A   Overcast
2:53 AM 21.9 °F - 18.0 °F 85% 30.20 in 10.0 mi Calm Calm - N/A   Overcast
3:20 AM 21.2 °F 16.4 °F 17.6 °F 86% 30.08 in 7.0 mi NNW 3.5 mph - N/A   Overcast
4:37 AM 19.4 °F 14.3 °F 15.8 °F 86% 30.08 in 6.0 mi West 3.5 mph - N/A   Overcast
4:53 AM 19.0 °F 12.3 °F 15.1 °F 85% 30.22 in 7.0 mi West 4.6 mph - N/A   Overcast
5:13 AM 19.4 °F 14.3 °F 15.8 °F 86% 30.08 in 8.0 mi WNW 3.5 mph - N/A   Overcast
5:53 AM 19.0 °F - 16.0 °F 88% 30.24 in 10.0 mi Calm Calm - N/A   Overcast
6:01 AM 19.4 °F - 15.8 °F 86% 30.09 in 10.0 mi Calm Calm - N/A   Overcast
6:53 AM 19.0 °F - 16.0 °F 88% 30.25 in 10.0 mi Calm Calm - N/A   Overcast
7:53 AM 19.9 °F - 16.0 °F 85% 30.25 in 6.0 mi Calm Calm - N/A   Overcast
8:53 AM 21.9 °F 9.2 °F 19.0 °F 89% 30.25 in 10.0 mi SW 13.8 mph - N/A   Overcast
9:53 AM 21.9 °F 11.0 °F 18.0 °F 85% 30.28 in 10.0 mi SSW 10.4 mph - N/A   Overcast
11:53 AM 19.9 °F 8.6 °F 17.1 °F 89% 30.29 in 10.0 mi WSW 10.4 mph - N/A   Overcast
12:53 PM 19.9 °F 6.7 °F 16.0 °F 85% 30.28 in 10.0 mi WSW 13.8 mph - N/A   Overcast
1:53 PM 21.0 °F 9.3 °F 17.1 °F 85% 30.28 in 10.0 mi SW 11.5 mph - N/A   Overcast
2:53 PM 21.9 °F 11.0 °F 17.1 °F 82% 30.29 in 10.0 mi SW 10.4 mph - N/A   Overcast
3:53 PM 19.9 °F 10.1 °F 15.1 °F 81% 30.32 in 10.0 mi West 8.1 mph - N/A   Overcast
4:53 PM 18.0 °F 12.7 °F 12.9 °F 81% 30.34 in 10.0 mi East 3.5 mph - N/A   Mostly Cloudy
5:35 PM 17.6 °F - 12.2 °F 79% 30.19 in 10.0 mi Calm Calm - N/A   Mostly Cloudy
5:53 PM 17.1 °F 11.7 °F 12.9 °F 84% 30.36 in 10.0 mi East 3.5 mph - N/A   Mostly Cloudy
6:34 PM 8.6 °F 0.1 °F 6.8 °F 92% 30.20 in 10.0 mi NNE 4.6 mph - N/A   Mostly Cloudy
6:53 PM 12.9 °F 3.8 °F 10.0 °F 88% 30.38 in 10.0 mi NNE 5.8 mph - N/A   Overcast
7:53 PM 18.0 °F 12.7 °F 14.0 °F 84% 30.36 in 10.0 mi ENE 3.5 mph - N/A   Overcast
8:02 PM 17.6 °F 10.7 °F 14.0 °F 86% 30.20 in 10.0 mi NNE 4.6 mph - N/A   Overcast
8:53 PM 19.0 °F 13.9 °F 14.0 °F 81% 30.35 in 10.0 mi East 3.5 mph - N/A   Overcast
9:50 PM 17.6 °F 9.3 °F 14.0 °F 86% 30.21 in 10.0 mi ENE 5.8 mph - N/A   Overcast
9:53 PM 18.0 °F 11.1 °F 14.0 °F 84% 30.36 in 10.0 mi ENE 4.6 mph - N/A   Overcast
10:53 PM 18.0 °F 11.1 °F 14.0 °F 84% 30.36 in 10.0 mi ENE 4.6 mph - N/A   Overcast
11:53 PM 16.0 °F 8.8 °F 12.0 °F 84% 30.38 in 10.0 mi North 4.6 mph - N/A   Overcast